contact:dominique.lefevre@mio.osupytheas.fr, maurice.libes@osupytheas.fr, didier.mallarino@osupytheas.fr
Project:EMSO http://www.emso-fr.org/EMSO-France
Depth: 2436.0 m
Title:EMSO Ligure Ouest : Data MII capteur AQUADOPP
Date,Latitude,Longitude,X_East,Y_North,Z_Up,Amplitude_X,Amplitude_Y,Amplitude_Z,Batterie,SoundSpeed,Heading,Pitch,Roll,Pressure,TIS,Speed,Direction
, degrees North, degrees East, m.s-1, m.s-1,m.s-1, 1, 1, 1, Volt, m.s-1, degree, degree, degree, dbar, degree_C, m.s-1, degree
2022-04-13T00:04:03,42.805,6.029,0.081,-0.032,0.0,103.0,104.0,101.0,13.3,1505.2,329.4,-0.8,1.8,2470.769,13.28,0.087,111.6
2022-04-13T00:07:03,42.805,6.029,0.064,-0.019,0.029,103.0,103.0,101.0,13.4,1505.2,329.3,-0.8,1.9,2470.723,13.28,0.066,106.5
2022-04-13T00:10:03,42.805,6.029,0.073,-0.023,0.005,102.0,103.0,100.0,13.3,1505.2,327.4,-0.8,1.8,2470.722,13.28,0.076,107.5
2022-04-13T00:13:03,42.805,6.029,0.087,-0.002,0.022,103.0,103.0,102.0,13.4,1505.2,322.9,-0.7,1.8,2470.747,13.28,0.087,91.3
2022-04-13T00:16:03,42.805,6.029,0.039,-0.004,0.053,103.0,104.0,101.0,13.4,1505.2,328.9,-0.7,1.8,2470.746,13.28,0.039,95.9
2022-04-13T00:19:03,42.805,6.029,0.048,-0.003,-0.003,103.0,103.0,101.0,13.4,1505.2,325.0,-0.8,1.8,2470.736,13.28,0.048,93.6
2022-04-13T00:22:03,42.805,6.029,0.065,-0.031,-0.004,103.0,103.0,101.0,13.3,1505.2,324.8,-0.7,1.8,2470.729,13.28,0.072,115.5
2022-04-13T00:25:03,42.805,6.029,0.048,-0.001,0.022,102.0,103.0,101.0,13.4,1505.2,328.9,-0.8,1.8,2470.732,13.28,0.048,91.2
2022-04-13T00:28:03,42.805,6.029,0.056,-0.037,0.028,102.0,105.0,102.0,13.4,1505.2,332.5,-0.8,1.8,2470.794,13.28,0.067,123.5
2022-04-13T00:31:03,42.805,6.029,0.068,-0.003,0.037,103.0,105.0,101.0,13.3,1505.2,329.8,-0.7,1.8,2470.726,13.28,0.068,92.5
2022-04-13T00:34:03,42.805,6.029,0.082,-0.003,0.021,102.0,103.0,101.0,13.4,1505.2,329.0,-0.7,1.8,2470.729,13.28,0.082,92.1
2022-04-13T00:37:03,42.805,6.029,0.032,0.004,0.0,102.0,103.0,100.0,13.4,1505.2,324.3,-0.8,1.8,2470.731,13.28,0.032,82.9
2022-04-13T00:40:03,42.805,6.029,0.047,-0.019,0.038,102.0,104.0,101.0,13.4,1505.2,328.2,-0.7,1.8,2470.763,13.28,0.05,112.0
2022-04-13T00:43:03,42.805,6.029,0.043,-0.024,0.02,100.0,104.0,101.0,13.3,1505.2,322.4,-0.7,1.8,2470.799,13.28,0.049,119.2
2022-04-13T00:46:03,42.805,6.029,0.052,-0.038,-0.037,101.0,102.0,101.0,13.4,1505.2,325.8,-0.8,1.8,2470.784,13.28,0.064,126.2
2022-04-13T00:49:03,42.805,6.029,0.058,0.0,-0.003,101.0,104.0,101.0,13.4,1505.2,325.6,-0.8,1.8,2470.787,13.28,0.057,90.0
2022-04-13T00:52:03,42.805,6.029,0.053,-0.015,-0.014,102.0,104.0,100.0,13.4,1505.2,325.5,-0.7,1.8,2470.766,13.28,0.055,105.8
2022-04-13T00:55:03,42.805,6.029,0.072,-0.02,0.001,101.0,104.0,99.0,13.4,1505.2,328.8,-0.8,1.8,2470.759,13.28,0.074,105.5
2022-04-13T00:58:03,42.805,6.029,0.085,-0.016,0.038,103.0,101.0,101.0,13.4,1505.2,323.9,-0.7,1.8,2470.75,13.28,0.086,100.7
2022-04-13T01:04:03,42.805,6.029,0.082,-0.035,0.036,104.0,106.0,105.0,13.4,1505.2,332.3,-0.8,1.8,2470.766,13.28,0.089,113.1
2022-04-13T01:07:03,42.805,6.029,0.04,-0.013,-0.02,103.0,104.0,101.0,13.3,1505.2,326.7,-0.7,1.8,2470.795,13.28,0.042,108.0
2022-04-13T01:10:03,42.805,6.029,0.06,-0.02,0.0,102.0,104.0,100.0,13.4,1505.2,327.4,-0.8,1.8,2470.76,13.28,0.063,108.4
2022-04-13T01:13:03,42.805,6.029,0.038,-0.028,-0.033,104.0,102.0,100.0,13.4,1505.2,332.5,-0.7,1.8,2470.739,13.28,0.047,126.4
2022-04-13T01:16:03,42.805,6.029,0.076,-0.034,0.016,103.0,103.0,101.0,13.4,1505.2,325.0,-0.7,1.8,2470.808,13.28,0.083,114.1
2022-04-13T01:19:03,42.805,6.029,0.06,-0.024,-0.009,101.0,102.0,101.0,13.4,1505.2,325.2,-0.8,1.8,2470.773,13.28,0.064,111.8
2022-04-13T01:22:03,42.805,6.029,0.098,-0.011,0.044,101.0,102.0,101.0,13.4,1505.2,322.9,-0.7,1.8,2470.779,13.28,0.098,96.4
2022-04-13T01:25:03,42.805,6.029,0.068,-0.027,0.042,100.0,102.0,101.0,13.4,1505.2,330.3,-0.8,1.8,2470.809,13.28,0.073,111.7
2022-04-13T01:28:03,42.805,6.029,0.065,-0.02,0.004,102.0,102.0,101.0,13.4,1505.2,330.5,-0.7,1.8,2470.807,13.28,0.068,107.1
2022-04-13T01:31:03,42.805,6.029,0.045,-0.029,-0.008,101.0,103.0,100.0,13.4,1505.2,332.1,-0.7,1.8,2470.766,13.28,0.053,122.8
2022-04-13T01:34:03,42.805,6.029,0.065,-0.047,-0.024,101.0,103.0,101.0,13.4,1505.2,329.8,-0.8,1.8,2470.754,13.28,0.08,125.9
2022-04-13T01:37:03,42.805,6.029,0.061,-0.023,0.019,102.0,103.0,100.0,13.4,1505.2,330.5,-0.7,1.8,2470.773,13.28,0.065,110.7
2022-04-13T01:40:03,42.805,6.029,0.075,-0.035,0.004,101.0,103.0,100.0,13.4,1505.2,328.5,-0.8,1.8,2470.758,13.28,0.082,115.0
2022-04-13T01:43:03,42.805,6.029,0.063,-0.022,0.041,101.0,103.0,101.0,13.4,1505.2,333.2,-0.7,1.8,2470.779,13.28,0.066,109.2
2022-04-13T01:46:03,42.805,6.029,0.04,-0.018,-0.002,101.0,105.0,101.0,13.3,1505.2,331.5,-0.8,1.8,2470.79,13.28,0.043,114.2
2022-04-13T01:49:03,42.805,6.029,0.052,-0.008,0.005,101.0,104.0,100.0,13.4,1505.2,323.9,-0.8,1.8,2470.8,13.28,0.052,98.7
2022-04-13T01:52:03,42.805,6.029,0.081,-0.017,0.019,101.0,101.0,101.0,13.4,1505.2,324.1,-0.8,1.9,2470.778,13.28,0.082,101.9
2022-04-13T01:55:03,42.805,6.029,0.044,-0.021,-0.012,100.0,103.0,103.0,13.3,1505.2,327.3,-0.7,1.8,2470.787,13.28,0.048,115.5
2022-04-13T01:58:03,42.805,6.029,0.047,-0.022,0.027,102.0,102.0,101.0,13.3,1505.2,326.2,-0.8,1.8,2470.784,13.28,0.051,115.1
2022-04-13T02:04:03,42.805,6.029,0.063,-0.015,0.008,102.0,104.0,100.0,13.4,1505.2,328.0,-0.8,1.8,2470.829,13.28,0.064,103.4
2022-04-13T02:07:03,42.805,6.029,0.069,-0.032,-0.021,101.0,104.0,100.0,13.4,1505.2,323.7,-0.8,1.8,2470.807,13.28,0.076,114.9
2022-04-13T02:10:03,42.805,6.029,0.074,-0.033,-0.004,101.0,102.0,100.0,13.4,1505.2,331.2,-0.8,1.8,2470.841,13.28,0.081,114.0
2022-04-13T02:13:03,42.805,6.029,0.053,-0.026,0.0,102.0,102.0,100.0,13.4,1505.2,324.9,-0.7,1.8,2470.825,13.28,0.059,116.1
2022-04-13T02:16:03,42.805,6.029,0.062,-0.029,-0.002,101.0,103.0,101.0,13.4,1505.2,324.6,-0.8,1.8,2470.76,13.28,0.068,115.1
2022-04-13T02:19:03,42.805,6.029,0.043,-0.007,0.021,102.0,103.0,101.0,13.4,1505.2,325.4,-0.7,1.8,2470.794,13.28,0.043,99.2
2022-04-13T02:22:03,42.805,6.029,0.035,-0.02,-0.032,102.0,101.0,100.0,13.3,1505.2,322.8,-0.7,1.8,2470.795,13.28,0.04,119.7
2022-04-13T02:25:03,42.805,6.029,0.054,-0.032,0.002,102.0,103.0,100.0,13.3,1505.2,332.8,-0.7,1.8,2470.795,13.28,0.062,120.7
2022-04-13T02:28:03,42.805,6.029,0.087,-0.008,0.01,102.0,104.0,101.0,13.4,1505.2,325.4,-0.7,1.8,2470.789,13.28,0.087,95.3
2022-04-13T02:31:03,42.805,6.029,0.077,-0.004,0.037,101.0,104.0,101.0,13.3,1505.2,325.0,-0.8,1.8,2470.814,13.28,0.077,93.0
2022-04-13T02:34:03,42.805,6.029,0.059,-0.015,0.026,102.0,103.0,100.0,13.4,1505.2,328.2,-0.8,1.8,2470.814,13.28,0.06,104.3
2022-04-13T02:37:03,42.805,6.029,0.052,-0.024,-0.003,102.0,102.0,101.0,13.4,1505.2,323.9,-0.8,1.8,2470.799,13.28,0.057,114.8
2022-04-13T02:40:03,42.805,6.029,0.076,-0.011,-0.008,101.0,102.0,101.0,13.3,1505.2,331.6,-0.8,1.8,2470.829,13.28,0.076,98.2
2022-04-13T02:43:03,42.805,6.029,0.056,-0.004,0.051,102.0,103.0,101.0,13.4,1505.2,323.9,-0.8,1.8,2470.802,13.28,0.056,94.1
2022-04-13T02:46:03,42.805,6.029,0.068,-0.022,-0.001,101.0,103.0,100.0,13.4,1505.2,326.4,-0.8,1.8,2470.788,13.28,0.071,107.9
2022-04-13T02:49:03,42.805,6.029,0.049,-0.025,-0.011,101.0,102.0,100.0,13.4,1505.2,331.6,-0.8,1.8,2470.817,13.28,0.055,117.0
2022-04-13T02:52:03,42.805,6.029,0.066,-0.033,0.015,101.0,103.0,100.0,13.4,1505.2,331.2,-0.8,1.8,2470.801,13.28,0.073,116.6
2022-04-13T02:55:03,42.805,6.029,0.054,-0.017,0.03,102.0,103.0,100.0,13.4,1505.2,325.2,-0.8,1.8,2470.801,13.28,0.056,107.5
2022-04-13T02:58:03,42.805,6.029,0.056,-0.006,0.001,101.0,102.0,100.0,13.3,1505.2,328.8,-0.7,1.9,2470.833,13.28,0.056,96.1
2022-04-13T03:04:03,42.805,6.029,0.042,-0.032,-0.026,101.0,100.0,100.0,13.3,1505.2,321.6,-0.8,1.8,2470.849,13.28,0.052,127.3
2022-04-13T03:07:03,42.805,6.029,0.092,-0.041,0.007,102.0,100.0,100.0,13.3,1505.2,321.8,-0.8,1.8,2470.819,13.28,0.1,114.0
2022-04-13T03:10:03,42.805,6.029,0.076,-0.026,0.035,102.0,102.0,100.0,13.3,1505.2,329.6,-0.8,1.8,2470.84,13.28,0.08,108.9
2022-04-13T03:13:03,42.805,6.029,0.071,-0.01,0.031,101.0,102.0,99.0,13.4,1505.2,329.1,-0.8,1.8,2470.864,13.28,0.071,98.0
2022-04-13T03:16:03,42.805,6.029,0.066,-0.01,0.005,102.0,102.0,100.0,13.4,1505.2,324.5,-0.7,1.8,2470.846,13.28,0.066,98.6
2022-04-13T03:19:03,42.805,6.029,0.025,-0.023,-0.014,102.0,102.0,100.0,13.4,1505.2,331.3,-0.8,1.8,2470.848,13.28,0.033,132.6
2022-04-13T03:22:03,42.805,6.029,0.068,-0.036,0.03,102.0,102.0,100.0,13.4,1505.2,325.5,-0.8,1.8,2470.824,13.28,0.076,117.9
2022-04-13T03:25:03,42.805,6.029,0.08,-0.027,0.0,101.0,102.0,101.0,13.4,1505.2,327.8,-0.8,1.8,2470.853,13.28,0.084,108.6
2022-04-13T03:28:03,42.805,6.029,0.067,-0.034,-0.006,101.0,100.0,100.0,13.4,1505.2,323.9,-0.8,1.8,2470.841,13.28,0.075,116.9
2022-04-13T03:31:03,42.805,6.029,0.07,-0.023,0.018,102.0,101.0,100.0,13.4,1505.2,323.7,-0.8,1.8,2470.846,13.28,0.073,108.2
2022-04-13T03:34:03,42.805,6.029,0.083,-0.032,0.001,101.0,102.0,100.0,13.4,1505.2,327.6,-0.7,1.8,2470.853,13.28,0.088,111.1
2022-04-13T03:37:03,42.805,6.029,0.051,-0.016,-0.014,102.0,101.0,100.0,13.3,1505.2,327.1,-0.7,1.8,2470.805,13.28,0.053,107.4
2022-04-13T03:40:03,42.805,6.029,0.032,-0.022,-0.032,100.0,100.0,101.0,13.4,1505.2,329.3,-0.8,1.8,2470.84,13.28,0.038,124.5
2022-04-13T03:43:03,42.805,6.029,0.062,-0.029,-0.019,101.0,101.0,100.0,13.3,1505.2,325.1,-0.7,1.8,2470.86,13.28,0.068,115.1
2022-04-13T03:46:03,42.805,6.029,0.083,-0.035,0.02,100.0,101.0,100.0,13.4,1505.2,329.1,-0.8,1.8,2470.82,13.28,0.09,112.9
2022-04-13T03:49:03,42.805,6.029,0.087,-0.039,-0.026,102.0,101.0,99.0,13.4,1505.2,331.2,-0.8,1.8,2470.836,13.28,0.095,114.1
2022-04-13T03:52:03,42.805,6.029,0.09,-0.023,0.043,102.0,101.0,100.0,13.4,1505.2,325.7,-0.7,1.8,2470.803,13.28,0.092,104.3
2022-04-13T03:55:03,42.805,6.029,0.058,-0.024,0.0,102.0,101.0,100.0,13.4,1505.2,329.0,-0.7,1.8,2470.837,13.28,0.062,112.5
2022-04-13T03:58:03,42.805,6.029,0.058,-0.035,0.003,101.0,102.0,100.0,13.4,1505.2,332.3,-0.8,1.8,2470.841,13.28,0.067,121.1
2022-04-13T04:04:03,42.805,6.029,0.066,-0.021,-0.043,101.0,101.0,100.0,13.4,1505.2,326.5,-0.8,1.8,2470.911,13.28,0.069,107.6
2022-04-13T04:07:03,42.805,6.029,0.074,-0.031,0.011,102.0,101.0,100.0,13.3,1505.2,325.8,-0.7,1.7,2470.835,13.28,0.08,112.7
2022-04-13T04:10:03,42.805,6.029,0.084,-0.034,0.016,102.0,101.0,100.0,13.3,1505.2,326.4,-0.7,1.8,2470.86,13.28,0.09,112.0
2022-04-13T04:13:03,42.805,6.029,0.085,-0.052,0.0,100.0,102.0,100.0,13.4,1505.2,329.0,-0.8,1.8,2470.908,13.28,0.099,121.5
2022-04-13T04:16:03,42.805,6.029,0.081,-0.017,0.008,101.0,101.0,100.0,13.3,1505.2,333.2,-0.8,1.8,2470.885,13.28,0.082,101.9
2022-04-13T04:19:03,42.805,6.029,0.012,-0.011,-0.036,101.0,102.0,99.0,13.4,1505.2,322.4,-0.8,1.8,2470.864,13.28,0.016,132.5
2022-04-13T04:22:03,42.805,6.029,0.066,-0.023,0.02,101.0,100.0,101.0,13.4,1505.2,326.3,-0.8,1.8,2470.846,13.28,0.069,109.2
2022-04-13T04:25:03,42.805,6.029,0.072,-0.014,-0.003,101.0,101.0,100.0,13.4,1505.2,322.2,-0.8,1.8,2470.847,13.28,0.073,101.0
2022-04-13T04:28:03,42.805,6.029,0.079,-0.03,-0.003,101.0,101.0,99.0,13.4,1505.2,327.3,-0.7,1.8,2470.88,13.28,0.084,110.8
2022-04-13T04:31:03,42.805,6.029,0.046,-0.054,-0.025,101.0,102.0,100.0,13.3,1505.2,331.3,-0.7,1.8,2470.834,13.28,0.07,139.6
2022-04-13T04:34:03,42.805,6.029,0.059,-0.02,-0.007,102.0,102.0,100.0,13.4,1505.2,325.7,-0.7,1.8,2470.85,13.28,0.062,108.7
2022-04-13T04:37:03,42.805,6.029,0.028,-0.023,-0.019,100.0,101.0,100.0,13.4,1505.2,329.7,-0.8,1.9,2470.901,13.28,0.036,129.4
2022-04-13T04:40:03,42.805,6.029,0.054,-0.023,-0.012,100.0,101.0,100.0,13.4,1505.2,329.0,-0.7,1.8,2470.858,13.28,0.058,113.1
2022-04-13T04:43:03,42.805,6.029,0.057,-0.048,-0.051,101.0,102.0,100.0,13.4,1505.2,329.3,-0.8,1.8,2470.863,13.28,0.074,130.1
2022-04-13T04:46:03,42.805,6.029,0.064,-0.031,-0.022,101.0,102.0,100.0,13.3,1505.2,327.5,-0.7,1.8,2470.899,13.28,0.071,115.8
2022-04-13T04:49:03,42.805,6.029,0.053,-0.015,-0.002,100.0,101.0,100.0,13.4,1505.2,322.7,-0.8,1.8,2470.869,13.28,0.055,105.8
2022-04-13T04:52:03,42.805,6.029,0.047,-0.047,0.007,101.0,102.0,99.0,13.4,1505.2,329.5,-0.8,1.8,2470.874,13.28,0.066,135.0
2022-04-13T04:55:03,42.805,6.029,0.092,-0.042,-0.028,101.0,100.0,100.0,13.3,1505.2,326.6,-0.7,1.8,2470.864,13.28,0.101,114.5
2022-04-13T04:58:03,42.805,6.029,0.055,-0.024,-0.01,103.0,101.0,99.0,13.4,1505.2,329.6,-0.8,1.9,2470.853,13.28,0.06,113.6
2022-04-13T05:04:03,42.805,6.029,0.059,-0.047,-0.012,100.0,103.0,100.0,13.3,1505.2,331.0,-0.8,1.8,2470.901,13.28,0.075,128.5
2022-04-13T05:07:03,42.805,6.029,0.051,-0.012,0.007,101.0,102.0,100.0,13.3,1505.2,332.5,-0.8,1.8,2470.868,13.28,0.052,103.2
2022-04-13T05:10:03,42.805,6.029,0.042,-0.017,0.003,101.0,101.0,101.0,13.4,1505.2,333.0,-0.8,1.9,2470.882,13.28,0.045,112.0
2022-04-13T05:13:03,42.805,6.029,0.077,-0.059,-0.006,101.0,101.0,100.0,13.4,1505.2,332.0,-0.8,1.8,2470.846,13.28,0.097,127.5
2022-04-13T05:16:03,42.805,6.029,0.059,-0.023,-0.003,101.0,101.0,100.0,13.4,1505.2,325.5,-0.8,1.8,2470.856,13.28,0.063,111.3
2022-04-13T05:19:03,42.805,6.029,0.052,-0.034,-0.014,100.0,101.0,100.0,13.4,1505.2,323.6,-0.8,1.8,2470.844,13.28,0.062,123.2
2022-04-13T05:22:03,42.805,6.029,0.059,-0.027,0.005,100.0,103.0,101.0,13.4,1505.2,328.9,-0.7,1.8,2470.896,13.28,0.064,114.6
2022-04-13T05:25:03,42.805,6.029,0.059,-0.032,-0.023,102.0,101.0,100.0,13.4,1505.2,330.0,-0.8,1.8,2470.858,13.28,0.067,118.5
2022-04-13T05:28:03,42.805,6.029,0.066,-0.032,-0.052,101.0,101.0,100.0,13.4,1505.2,323.0,-0.7,1.8,2470.875,13.28,0.073,115.9
2022-04-13T05:31:03,42.805,6.029,0.06,-0.026,0.016,101.0,101.0,101.0,13.4,1505.2,331.3,-0.8,1.8,2470.858,13.28,0.065,113.4
2022-04-13T05:34:03,42.805,6.029,0.061,-0.029,0.008,101.0,101.0,101.0,13.3,1505.2,327.1,-0.8,1.8,2470.857,13.28,0.067,115.4
2022-04-13T05:37:03,42.805,6.029,0.051,-0.023,0.029,102.0,102.0,100.0,13.4,1505.2,331.0,-0.8,1.8,2470.852,13.28,0.055,114.3
2022-04-13T05:40:03,42.805,6.029,0.063,-0.034,0.008,101.0,101.0,100.0,13.3,1505.2,331.8,-0.8,1.8,2470.867,13.28,0.071,118.4
2022-04-13T05:43:03,42.805,6.029,0.067,-0.003,0.038,100.0,101.0,100.0,13.4,1505.2,328.7,-0.7,1.8,2470.862,13.28,0.067,92.6
2022-04-13T05:46:03,42.805,6.029,0.008,-0.007,-0.024,102.0,101.0,101.0,13.4,1505.2,324.8,-0.7,1.8,2470.866,13.28,0.01,131.2
2022-04-13T05:49:03,42.805,6.029,0.07,-0.018,0.02,100.0,101.0,100.0,13.3,1505.2,329.5,-0.8,1.8,2470.835,13.28,0.072,104.4
2022-04-13T05:52:03,42.805,6.029,0.062,-0.021,0.011,101.0,100.0,102.0,13.4,1505.2,323.0,-0.8,1.8,2470.832,13.28,0.065,108.7
2022-04-13T05:55:03,42.805,6.029,0.047,-0.026,-0.009,101.0,103.0,101.0,13.4,1505.2,331.6,-0.7,1.8,2470.847,13.28,0.053,118.9
2022-04-13T05:58:03,42.805,6.029,0.071,-0.03,0.004,102.0,100.0,101.0,13.3,1505.2,328.3,-0.8,1.8,2470.809,13.28,0.077,112.9
2022-04-13T06:04:03,42.805,6.029,0.063,-0.03,0.014,101.0,102.0,100.0,13.4,1505.2,331.2,-0.7,1.8,2470.85,13.28,0.069,115.5
2022-04-13T06:07:03,42.805,6.029,0.066,-0.026,-0.007,102.0,99.0,100.0,13.4,1505.2,322.9,-0.7,1.8,2470.849,13.28,0.07,111.5
2022-04-13T06:10:03,42.805,6.029,0.039,-0.018,0.0,102.0,101.0,100.0,13.4,1505.2,327.5,-0.8,1.8,2470.777,13.28,0.042,114.8
2022-04-13T06:13:03,42.805,6.029,0.062,-0.062,-0.019,102.0,101.0,100.0,13.4,1505.2,332.3,-0.7,1.9,2470.771,13.28,0.087,135.0
2022-04-13T06:16:03,42.805,6.029,0.079,-0.019,0.033,101.0,103.0,100.0,13.4,1505.2,322.7,-0.8,1.8,2470.784,13.28,0.081,103.5
2022-04-13T06:19:03,42.805,6.029,0.027,-0.039,-0.013,101.0,103.0,101.0,13.4,1505.2,330.2,-0.7,1.8,2470.776,13.28,0.047,145.3
2022-04-13T06:22:03,42.805,6.029,0.058,-0.055,-0.012,100.0,101.0,101.0,13.4,1505.2,326.0,-0.8,1.8,2470.728,13.28,0.079,133.5
2022-04-13T06:25:03,42.805,6.029,0.033,-0.004,0.004,100.0,103.0,100.0,13.3,1505.2,325.0,-0.7,1.8,2470.701,13.28,0.033,96.9
2022-04-13T06:28:03,42.805,6.029,0.059,-0.032,-0.005,101.0,102.0,100.0,13.4,1505.2,331.5,-0.7,1.8,2470.671,13.28,0.067,118.5
2022-04-13T06:31:03,42.805,6.029,0.043,-0.031,-0.015,99.0,101.0,100.0,13.4,1505.2,325.6,-0.7,1.8,2470.642,13.28,0.053,125.8
2022-04-13T06:34:03,42.805,6.029,0.068,-0.031,0.029,101.0,101.0,100.0,13.3,1505.2,329.4,-0.8,1.8,2470.654,13.28,0.074,114.5
2022-04-13T06:37:03,42.805,6.029,0.064,-0.046,-0.012,101.0,101.0,100.0,13.4,1505.2,323.2,-0.8,1.8,2470.619,13.28,0.078,125.7
2022-04-13T06:40:03,42.805,6.029,0.049,-0.027,-0.013,102.0,101.0,101.0,13.4,1505.2,324.0,-0.8,1.8,2470.586,13.28,0.055,118.9
2022-04-13T06:43:03,42.805,6.029,0.07,-0.01,0.009,101.0,102.0,100.0,13.4,1505.2,326.6,-0.8,1.8,2470.607,13.28,0.07,98.1
2022-04-13T06:46:03,42.805,6.029,0.08,-0.03,-0.009,100.0,101.0,100.0,13.4,1505.2,330.8,-0.8,1.8,2470.595,13.28,0.085,110.6
2022-04-13T06:49:03,42.805,6.029,0.046,-0.009,0.002,101.0,101.0,100.0,13.4,1505.2,321.9,-0.8,1.8,2470.597,13.28,0.046,101.1
2022-04-13T06:52:03,42.805,6.029,0.07,0.0,0.013,100.0,102.0,100.0,13.4,1505.2,325.8,-0.8,1.8,2470.59,13.28,0.069,90.0
2022-04-13T06:55:03,42.805,6.029,0.077,-0.03,-0.008,101.0,100.0,101.0,13.4,1505.2,331.4,-0.8,1.8,2470.546,13.28,0.082,111.3
2022-04-13T06:58:03,42.805,6.029,0.042,-0.039,-0.022,101.0,101.0,100.0,13.4,1505.2,326.4,-0.7,1.8,2470.588,13.28,0.057,132.9
2022-04-13T07:01:03,42.805,6.029,0.04,-0.03,-0.014,100.0,101.0,100.0,13.4,1505.2,330.6,-0.7,1.8,2470.585,13.28,0.05,126.9
2022-04-13T07:04:03,42.805,6.029,0.068,-0.029,0.006,102.0,101.0,100.0,13.4,1505.2,325.1,-0.8,1.8,2470.555,13.28,0.073,113.1
2022-04-13T07:07:03,42.805,6.029,0.057,-0.023,0.009,100.0,100.0,100.0,13.4,1505.2,327.5,-0.7,1.8,2470.486,13.28,0.061,112.0
2022-04-13T07:10:03,42.805,6.029,0.041,-0.009,0.009,100.0,101.0,101.0,13.3,1505.2,331.9,-0.8,1.8,2470.537,13.28,0.041,102.4
2022-04-13T07:13:03,42.805,6.029,0.083,-0.032,0.008,103.0,100.0,101.0,13.4,1505.2,330.4,-0.8,1.8,2470.526,13.28,0.088,111.1
2022-04-13T07:16:03,42.805,6.029,0.045,-0.026,0.002,101.0,101.0,100.0,13.3,1505.2,331.2,-0.7,1.8,2470.542,13.28,0.051,120.0
2022-04-13T07:19:03,42.805,6.029,0.049,-0.018,-0.016,101.0,101.0,100.0,13.4,1505.2,331.8,-0.8,1.8,2470.564,13.28,0.052,110.2
2022-04-13T07:22:03,42.805,6.029,0.062,-0.024,-0.009,102.0,103.0,99.0,13.4,1505.2,324.9,-0.7,1.8,2470.558,13.28,0.066,111.2
2022-04-13T07:25:03,42.805,6.029,0.062,-0.01,0.031,101.0,102.0,100.0,13.3,1505.2,323.4,-0.7,1.8,2470.614,13.28,0.062,99.2
2022-04-13T07:28:03,42.805,6.029,0.046,-0.011,-0.043,100.0,101.0,101.0,13.3,1505.2,331.5,-0.8,1.9,2470.502,13.28,0.047,103.4
2022-04-13T07:31:03,42.805,6.029,0.053,-0.021,-0.007,100.0,101.0,101.0,13.3,1505.2,327.5,-0.8,1.8,2470.527,13.28,0.057,111.6
2022-04-13T07:34:03,42.805,6.029,0.082,-0.029,0.02,101.0,103.0,100.0,13.4,1505.2,324.4,-0.8,1.8,2470.554,13.28,0.086,109.5
2022-04-13T07:37:03,42.805,6.029,0.062,-0.039,-0.021,100.0,100.0,100.0,13.4,1505.2,324.2,-0.7,1.8,2470.514,13.28,0.073,122.2
2022-04-13T07:40:03,42.805,6.029,0.04,-0.005,-0.013,99.0,102.0,100.0,13.4,1505.2,323.9,-0.8,1.9,2470.491,13.28,0.04,97.1
2022-04-13T07:43:03,42.805,6.029,0.072,-0.038,0.001,101.0,101.0,100.0,13.3,1505.2,328.6,-0.8,1.8,2470.526,13.28,0.081,117.8
2022-04-13T07:46:03,42.805,6.029,0.059,-0.008,0.011,102.0,99.0,100.0,13.4,1505.2,325.3,-0.7,1.8,2470.508,13.28,0.059,97.7
2022-04-13T07:49:03,42.805,6.029,0.055,-0.026,0.015,101.0,100.0,100.0,13.3,1505.2,324.5,-0.7,1.8,2470.523,13.28,0.06,115.3
2022-04-13T07:52:03,42.805,6.029,0.061,-0.036,-0.014,101.0,100.0,100.0,13.4,1505.2,332.2,-0.7,1.8,2470.5,13.28,0.07,120.5
2022-04-13T07:55:03,42.805,6.029,0.067,-0.006,0.001,100.0,101.0,100.0,13.3,1505.2,322.7,-0.8,1.8,2470.538,13.28,0.067,95.1
2022-04-13T07:58:03,42.805,6.029,0.012,0.002,-0.006,101.0,101.0,100.0,13.4,1505.2,327.5,-0.8,1.8,2470.513,13.28,0.012,80.5
2022-04-13T08:04:03,42.805,6.029,0.048,-0.016,-0.016,101.0,102.0,100.0,13.4,1505.2,324.2,-0.7,1.8,2470.496,13.28,0.05,108.4
2022-04-13T08:07:03,42.805,6.029,0.047,-0.026,-0.013,102.0,101.0,100.0,13.3,1505.2,331.3,-0.7,1.8,2470.506,13.28,0.053,118.9
2022-04-13T08:10:03,42.805,6.029,0.064,-0.039,-0.038,101.0,100.0,100.0,13.4,1505.2,330.1,-0.8,1.8,2470.531,13.28,0.074,121.4
2022-04-13T08:13:03,42.805,6.029,0.069,-0.016,0.02,101.0,103.0,100.0,13.3,1505.2,329.0,-0.8,1.8,2470.516,13.28,0.07,103.1
2022-04-13T08:16:03,42.805,6.029,0.021,-0.013,-0.014,101.0,102.0,100.0,13.3,1505.2,324.3,-0.8,1.8,2470.521,13.28,0.024,121.8
2022-04-13T08:19:03,42.805,6.029,0.043,-0.006,-0.009,102.0,102.0,100.0,13.4,1505.2,321.9,-0.7,1.8,2470.554,13.28,0.043,97.9
2022-04-13T08:22:03,42.805,6.029,0.049,-0.009,0.002,100.0,102.0,100.0,13.4,1505.2,322.2,-0.8,1.8,2470.542,13.28,0.049,100.4
2022-04-13T08:25:03,42.805,6.029,0.052,-0.021,0.007,100.0,102.0,100.0,13.3,1505.2,330.3,-0.8,1.8,2470.518,13.28,0.056,112.0
2022-04-13T08:28:03,42.805,6.029,0.066,-0.028,-0.014,101.0,102.0,100.0,13.4,1505.2,325.9,-0.8,1.8,2470.524,13.28,0.071,113.0
2022-04-13T08:31:03,42.805,6.029,0.068,-0.018,0.027,101.0,104.0,101.0,13.3,1505.2,332.3,-0.8,1.8,2470.549,13.28,0.07,104.8
2022-04-13T08:34:03,42.805,6.029,0.041,-0.007,-0.004,101.0,103.0,99.0,13.4,1505.2,324.8,-0.8,1.8,2470.568,13.28,0.041,99.7
2022-04-13T08:37:03,42.805,6.029,0.033,-0.025,0.0,100.0,103.0,100.0,13.4,1505.2,330.9,-0.8,1.8,2470.586,13.28,0.041,127.1
2022-04-13T08:40:03,42.805,6.029,0.045,-0.002,-0.009,101.0,102.0,100.0,13.4,1505.2,325.3,-0.7,1.8,2470.574,13.28,0.045,92.5
2022-04-13T08:43:03,42.805,6.029,0.041,-0.017,0.0,100.0,102.0,100.0,13.3,1505.2,326.7,-0.8,1.9,2470.576,13.28,0.044,112.5
2022-04-13T08:46:03,42.805,6.029,0.058,-0.005,0.02,101.0,103.0,100.0,13.4,1505.2,324.1,-0.8,1.8,2470.565,13.28,0.058,94.9
2022-04-13T08:49:03,42.805,6.029,0.046,0.015,-0.004,101.0,102.0,100.0,13.4,1505.2,326.8,-0.7,1.8,2470.622,13.28,0.048,71.9
2022-04-13T08:52:03,42.805,6.029,0.055,0.001,0.041,102.0,104.0,100.0,13.3,1505.2,328.2,-0.7,1.8,2470.627,13.28,0.055,89.0
2022-04-13T08:55:03,42.805,6.029,0.048,-0.008,-0.004,101.0,101.0,101.0,13.3,1505.2,326.4,-0.8,1.8,2470.63,13.28,0.048,99.5
2022-04-13T08:58:03,42.805,6.029,0.072,-0.035,0.0,101.0,101.0,100.0,13.4,1505.2,326.8,-0.8,1.8,2470.63,13.28,0.08,115.9
2022-04-13T09:04:03,42.805,6.029,0.056,-0.003,0.026,102.0,101.0,100.0,13.3,1505.2,322.4,-0.8,1.8,2470.628,13.28,0.056,93.1
2022-04-13T09:07:03,42.805,6.029,0.061,-0.022,-0.019,100.0,103.0,100.0,13.4,1505.2,330.3,-0.8,1.8,2470.627,13.28,0.064,109.8
2022-04-13T09:10:03,42.805,6.029,0.06,-0.04,-0.023,100.0,104.0,101.0,13.4,1505.2,325.3,-0.7,1.8,2470.561,13.28,0.072,123.7
2022-04-13T09:13:03,42.805,6.029,0.042,-0.008,-0.024,102.0,102.0,99.0,13.3,1505.2,332.1,-0.8,1.8,2470.574,13.28,0.042,100.8
2022-04-13T09:16:03,42.805,6.029,0.064,-0.004,0.034,101.0,104.0,100.0,13.4,1505.2,323.5,-0.8,1.8,2470.538,13.28,0.064,93.6
2022-04-13T09:19:03,42.805,6.029,0.042,-0.006,0.019,102.0,102.0,101.0,13.4,1505.2,331.7,-0.7,1.8,2470.524,13.28,0.042,98.1
2022-04-13T09:22:03,42.805,6.029,0.041,-0.009,0.0,101.0,102.0,101.0,13.3,1505.2,326.5,-0.8,1.8,2470.532,13.28,0.041,102.4
2022-04-13T09:25:03,42.805,6.029,0.037,-0.027,-0.004,101.0,103.0,100.0,13.3,1505.2,332.3,-0.7,1.8,2470.544,13.28,0.045,126.1
2022-04-13T09:28:03,42.805,6.029,0.045,-0.021,0.003,101.0,103.0,100.0,13.4,1505.2,331.6,-0.7,1.8,2470.527,13.28,0.049,115.0
2022-04-13T09:31:03,42.805,6.029,0.052,-0.012,-0.025,102.0,103.0,101.0,13.4,1505.2,327.0,-0.8,1.9,2470.517,13.28,0.053,103.0
2022-04-13T09:34:03,42.805,6.029,0.072,-0.004,0.03,101.0,102.0,99.0,13.3,1505.2,326.9,-0.7,1.8,2470.488,13.28,0.072,93.2
2022-04-13T09:37:03,42.805,6.029,0.048,-0.019,-0.023,100.0,102.0,101.0,13.4,1505.2,324.2,-0.7,1.8,2470.514,13.28,0.051,111.6
2022-04-13T09:40:03,42.805,6.029,0.059,-0.009,0.015,101.0,103.0,101.0,13.4,1505.2,329.5,-0.8,1.8,2470.52,13.28,0.059,98.7
2022-04-13T09:43:03,42.805,6.029,0.055,-0.001,0.038,102.0,102.0,100.0,13.3,1505.2,322.9,-0.8,1.8,2470.466,13.28,0.055,91.0
2022-04-13T09:46:03,42.805,6.029,0.053,0.001,0.019,103.0,103.0,99.0,13.4,1505.2,323.2,-0.8,1.8,2470.502,13.28,0.053,88.9
2022-04-13T09:49:03,42.805,6.029,0.028,-0.011,0.008,101.0,103.0,100.0,13.3,1505.2,328.4,-0.7,1.8,2470.494,13.28,0.03,111.4
2022-04-13T09:52:03,42.805,6.029,0.07,-0.012,0.006,103.0,104.0,99.0,13.4,1505.2,329.7,-0.8,1.8,2470.539,13.28,0.071,99.7
2022-04-13T09:55:03,42.805,6.029,0.055,-0.039,-0.003,100.0,103.0,100.0,13.3,1505.2,331.7,-0.7,1.8,2470.527,13.28,0.067,125.3